Location: *
(50.6089°N, 2.2719°E)
Time: 01:03:18
(UTC+00:00)

STARLINK-70 - Pass Details

Date: 18 October 2019
Orbit: 549 x 551 km, 53.0° (Epoch: 21 November)

Event Time Altitude Azimuth Distance (km) Brightness Sun altitude
Rises 19:05:25 0° 273° (W) 2,718 8.7 -21.6°
Reaches altitude 10° 19:07:40 10° 277° (W) 1,825 7.4 -22.0°
Maximum altitude 19:11:47 61° 358° (N) 629 3.8 -22.6°
Enters shadow 19:12:01 60° 17° (NNE) 636 3.8 -22.6°
